Location: Krakow
(50.0830°N, 19.9170°E)
Time: 19:54:10
(UTC+01:00)

Altair - Pass Details

Date: 02 December 2023
Orbit: 1501 x 1682 km, 47.2° (Epoch: 03 March)

Event Time Altitude Azimuth Distance (km) Brightness Sun altitude
Rises 13:31:16 0° 282° (WNW) 4,710 10.3 13.1°
Reaches altitude 10° 13:34:24 10° 279° (W) 3,706 9.8 12.8°
Maximum altitude 13:43:26 58° 204° (SSW) 1,714 8.6 12.1°
Drops below altitude 10° 13:52:19 10° 128° (SE) 3,648 9.6 11.3°
Sets 13:55:22 0° 124° (SE) 4,632 10.0 11.1°
